This demonstration page uses our WeatherBlox Daily Observations layout. Learn more.

Left ArrowRight Arrow

39.92423, -83.80882

Hourly Observations for January 15, 2022

Temp ( °F °C ) Dew Point ( °F °C ) Humidity (%) Winds ( mph kmh ) Pressure ( in mb ) Visibility ( mi km ) Precip ( " mm )
12:56 am 00:56 Cloudy 24 -4.4 20 -6.7 84 84 NNE 13 20 30.22 1023 10 16 0.00 0.00
1:33 am 01:33 Cloudy 21 -6 19 -7 93 93 NNE 10 17 30.27 1025 10 16 0.00 0.00
1:56 am 01:56 Cloudy 21 -6.1 18 -7.8 88 88 NNE 10 17 30.24 1024 10 16 0.00 0.00
2:03 am 02:03 Cloudy 21 -6 18 -8 86 86 NNE 12 19 30.27 1025 10 16 0.00 0.00
2:17 am 02:17 Cloudy 21 -6 18 -8 86 86 NE 14 22 30.27 1025 10 16 0.00 0.00
2:24 am 02:24 Cloudy 19 -7 18 -8 93 93 NNE 13 20 30.28 1025 10 16 0.00 0.00
2:46 am 02:46 Cloudy 19 -7 18 -8 93 93 NNE 12 19 30.29 1026 10 16 0.00 0.00
2:56 am 02:56 Cloudy 20 -6.7 18 -7.8 92 92 NNE 12 19 30.24 1024 10 16 0.00 0.00
3:56 am 03:56 Cloudy 21 -6.1 19 -7.2 92 92 NNE 12 19 30.25 1024 10 16 0.00 0.00
4:56 am 04:56 Cloudy 21 -6.1 19 -7.2 92 92 NE 13 20 30.25 1024 10 16 0.00 0.00
5:45 am 05:45 Cloudy 21 -6 18 -8 86 86 NNE 10 17 30.31 1026 10 16 0.00 0.00
5:56 am 05:56 Cloudy 21 -6.1 18 -7.8 88 88 NNE 8 13 30.28 1025 10 16 0.00 0.00
6:05 am 06:05 Cloudy 21 -6 18 -8 86 86 NNE 12 19 30.31 1026 10 16 0.00 0.00
6:56 am 06:56 Cloudy 21 -6.1 19 -7.2 92 92 NNE 10 17 30.29 1026 10 16 0.00 0.00
7:36 am 07:36 Cloudy 21 -6 19 -7 93 93 NNE 10 17 30.34 1027 10 16 0.00 0.00
7:52 am 07:52 Cloudy 21 -6 19 -7 93 93 NNE 9 15 30.34 1027 10 16 0.00 0.00
7:56 am 07:56 Cloudy 21 -6.1 19 -7.2 92 92 NNE 14 22 30.30 1026 10 16 0.00 0.00
8:16 am 08:16 Cloudy 19 -7 19 -7 100 100 NNE 13 20 30.35 1028 10 16 0.00 0.00
8:56 am 08:56 Cloudy 20 -6.7 19 -7.2 96 96 NNE 12 19 30.32 1027 10 16 0.00 0.00
9:46 am 09:46 Partly Cloudy 21 -6 18 -8 86 86 NE 13 20 30.36 1028 10 16 0.00 0.00
9:56 am 09:56 Mostly Sunny 22 -5.6 18 -7.8 85 85 NE 16 26 30.32 1027 10 16 0.00 0.00
10:53 am 10:53 Mostly Cloudy 25 -4 19 -7 80 80 ENE 18 30 30.34 1027 10 16 0.00 0.00
10:56 am 10:56 Mostly Cloudy 24 -4.4 18 -7.8 77 77 ENE 17 28 30.32 1027 10 16 0.00 0.00
11:38 am 11:38 Partly Cloudy 25 -4 18 -8 74 74 NE 15 24 30.34 1027 10 16 0.00 0.00
11:56 am 11:56 Mostly Cloudy 26 -3.3 19 -7.2 75 75 ENE 13 20 30.32 1027 10 16 0.00 0.00
12:26 pm 12:26 Partly Cloudy 27 -3 18 -8 69 69 ENE 13 20 30.33 1027 10 16 0.00 0.00
12:56 pm 12:56 Mostly Sunny 27 -2.8 17 -8.3 66 66 NE 13 20 30.30 1026 10 16 0.00 0.00
1:31 pm 13:31 Mostly Cloudy 28 -2 18 -8 64 64 E 9 15 30.31 1027 10 16 0.00 0.00
1:56 pm 13:56 Cloudy 29 -1.7 18 -7.8 63 63 NE 13 20 30.29 1026 10 16 0.00 0.00
2:40 pm 14:40 Partly Cloudy 28 -2 16 -9 59 59 ENE 14 22 30.29 1026 10 16 0.00 0.00
2:56 pm 14:56 Sunny 28 -2.2 15 -9.4 58 58 NE 14 22 30.28 1025 10 16 0.00 0.00
3:56 pm 15:56 Sunny 28 -2.2 14 -10 56 56 ENE 12 19 30.27 1025 10 16 0.00 0.00
4:56 pm 16:56 Sunny 27 -2.8 14 -10 58 58 NE 14 22 30.27 1025 10 16 0.00 0.00
5:56 pm 17:56 Clear 22 -5.6 14 -10 71 71 ENE 9 15 30.28 1026 10 16 0.00 0.00
6:56 pm 18:56 Clear 22 -5.6 14 -10 71 71 NE 9 15 30.28 1026 10 16 0.00 0.00
7:56 pm 19:56 Clear 22 -5.6 15 -9.4 75 75 NE 15 24 30.28 1025 10 16 0.00 0.00
8:56 pm 20:56 Clear 20 -6.7 15 -9.4 81 81 NE 10 17 30.28 1025 10 16 0.00 0.00
9:56 pm 21:56 Clear 20 -6.7 14 -10 78 78 ENE 12 19 30.25 1024 10 16 0.00 0.00
10:56 pm 22:56 Clear 19 -7.2 12 -11.1 74 74 E 9 15 30.24 1024 10 16 0.00 0.00
11:56 pm 23:56 Clear 17 -8.3 10 -12.2 74 74 ENE 8 13 30.24 1024 10 16 0.00 0.00

Powered by AerisWeather